Location: Albany
(35.0170°S, 117.8920°E)
Time: 11:05:21
(UTC+08:00)

S-56A Canister/Altair - Pass Details

Date: 23 January 2021
Orbit: 631 x 2501 km, 38.9° (Epoch: 02 March)

Event Time Altitude Azimuth Distance (km) Brightness Sun altitude
Rises 20:35:52 0° 248° (WSW) 6,032 13.8 -13.9°
Reaches altitude 10° 20:40:17 10° 253° (WSW) 4,854 12.8 -14.7°
Maximum altitude 20:52:28 46° 319° (NW) 2,283 9.9 -16.6°
Enters shadow 20:59:01 19° 22° (NNE) 2,936 10.0 -17.7°
Drops below altitude 10° 21:00:59 10° 29° (NNE) 3,422 - -18.0°
Sets 21:03:35 0° 35° (NE) 4,160 - -18.4°
